When you browse on this site, cookies collect data to enhance your experience and personalize the content and advertising you see.
Visit our Privacy Policy to learn more. By continuing to use the site, you agree to this use of cookies and data.
  • In Netherlands
  • List of Countries
  • For 7 days
  • Water Temperature
  • Satellite Maps
  • Weather Map
  • Weather Widgets
  • user-avatar
    Login

    Hourly Weather Jaú

    Today, 22 May, Wednesday

    Time Temperature Precipitation Wind Pressure Humidity
    00:00 +34°C° 0 mm 1 mps 756 mmHg 37%
    01:00 +35°C° 0 mm 2 mps 756 mmHg 37%
    02:00 +34°C° 0 mm 2 mps 756 mmHg 37%
    03:00 +34°C° 0 mm 2 mps 756 mmHg 39%
    04:00 +34°C° 0 mm 3 mps 756 mmHg 39%
    05:00 +35°C° 0 mm 3 mps 757 mmHg 38%
    06:00 +35°C° 0 mm 4 mps 757 mmHg 38%
    07:00 +36°C° 0 mm 4 mps 757 mmHg 36%
    08:00 +37°C° 0 mm 4 mps 757 mmHg 33%
    09:00 +39°C° 0 mm 3 mps 757 mmHg 30%
    10:00 +39°C° 0 mm 3 mps 757 mmHg 27%
    11:00 +40°C° 0 mm 2 mps 757 mmHg 25%
    12:00 +41°C° 0 mm 2 mps 757 mmHg 22%
    13:00 +40°C° 0 mm 3 mps 756 mmHg 25%
    14:00 +40°C° 0 mm 4 mps 756 mmHg 28%
    15:00 +39°C° 0 mm 5 mps 756 mmHg 31%
    16:00 +37°C° 0 mm 5 mps 756 mmHg 33%
    17:00 +36°C° 0 mm 5 mps 756 mmHg 35%
    18:00 +35°C° 0 mm 5 mps 756 mmHg 36%
    19:00 +35°C° 0 mm 4 mps 756 mmHg 38%
    20:00 +34°C° 0 mm 3 mps 756 mmHg 40%
    21:00 +34°C° 0 mm 3 mps 756 mmHg 42%
    22:00 +34°C° 0 mm 2 mps 756 mmHg 40%
    23:00 +32°C° 0 mm 2 mps 756 mmHg 37%

    Tomorrow, 23 May, Thursday

    Time Temperature Precipitation Wind Pressure Humidity
    00:00 +32°C° 0 mm 1 mps 756 mmHg 35%
    01:00 +32°C° 0 mm 2 mps 755 mmHg 34%
    02:00 +33°C° 0 mm 3 mps 755 mmHg 33%
    03:00 +34°C° 0 mm 4 mps 755 mmHg 31%
    04:00 +34°C° 0 mm 4 mps 755 mmHg 31%
    05:00 +34°C° 0 mm 5 mps 755 mmHg 30%
    06:00 +34°C° 0 mm 5 mps 755 mmHg 29%
    07:00 +36°C° 0 mm 5 mps 756 mmHg 25%
    08:00 +39°C° 0 mm 5 mps 756 mmHg 21%
    09:00 +40°C° 0 mm 4 mps 756 mmHg 16%
    10:00 +41°C° 0 mm 4 mps 756 mmHg 15%
    11:00 +42°C° 0 mm 3 mps 756 mmHg 14%
    12:00 +43°C° 0 mm 3 mps 755 mmHg 13%
    13:00 +42°C° 0 mm 4 mps 755 mmHg 16%
    14:00 +41°C° 0 mm 5 mps 755 mmHg 18%
    15:00 +41°C° 0 mm 6 mps 754 mmHg 21%
    16:00 +39°C° 0 mm 5 mps 754 mmHg 25%
    17:00 +37°C° 0 mm 5 mps 754 mmHg 28%
    18:00 +36°C° 0 mm 5 mps 754 mmHg 31%
    19:00 +35°C° 0 mm 4 mps 754 mmHg 33%
    20:00 +35°C° 0 mm 2 mps 754 mmHg 34%
    21:00 +34°C° 0 mm 1 mps 755 mmHg 36%
    22:00 +33°C° 0 mm 1 mps 755 mmHg 35%
    23:00 +34°C° 0 mm 2 mps 755 mmHg 34%

    Day after tomorrow, 24 May, Friday

    Time Temperature Precipitation Wind Pressure Humidity
    00:00 +34°C° 0 mm 2 mps 755 mmHg 32%
    01:00 +34°C° 0 mm 2 mps 755 mmHg 32%
    02:00 +34°C° 0 mm 3 mps 754 mmHg 31%
    03:00 +34°C° 0 mm 3 mps 754 mmHg 31%
    04:00 +34°C° 0 mm 3 mps 754 mmHg 30%
    05:00 +34°C° 0 mm 3 mps 754 mmHg 29%
    06:00 +35°C° 0 mm 2 mps 755 mmHg 28%
    07:00 +36°C° 0 mm 2 mps 755 mmHg 25%
    08:00 +38°C° 0 mm 3 mps 755 mmHg 22%
    09:00 +39°C° 0 mm 3 mps 756 mmHg 19%
    10:00 +40°C° 0 mm 2 mps 756 mmHg 18%
    11:00 +40°C° 0 mm 2 mps 755 mmHg 18%
    12:00 +41°C° 0 mm 2 mps 755 mmHg 17%
    13:00 +40°C° 0 mm 3 mps 755 mmHg 20%
    14:00 +40°C° 0 mm 3 mps 754 mmHg 23%
    15:00 +40°C° 0 mm 4 mps 754 mmHg 25%
    16:00 +38°C° 0 mm 4 mps 754 mmHg 27%
    17:00 +37°C° 0 mm 4 mps 754 mmHg 28%
    18:00 +36°C° 0 mm 4 mps 754 mmHg 29%
    19:00 +36°C° 0 mm 4 mps 755 mmHg 29%
    20:00 +36°C° 0 mm 4 mps 755 mmHg 28%
    21:00 +36°C° 0 mm 4 mps 756 mmHg 28%
    22:00 +35°C° 0 mm 3 mps 755 mmHg 30%
    23:00 +35°C° 0 mm 3 mps 755 mmHg 32%

    25 May, Saturday

    Time Temperature Precipitation Wind Pressure Humidity
    00:00 +34°C° 0 mm 3 mps 755 mmHg 34%
    01:00 +34°C° 0 mm 2 mps 754 mmHg 35%
    02:00 +32°C° 0 mm 2 mps 754 mmHg 36%
    03:00 +32°C° 0 mm 1 mps 754 mmHg 37%
    04:00 +32°C° 0 mm 1 mps 754 mmHg 35%
    05:00 +32°C° 0 mm 1 mps 755 mmHg 34%
    06:00 +33°C° 0 mm 1 mps 755 mmHg 33%
    07:00 +34°C° 0 mm 1 mps 755 mmHg 31%
    08:00 +35°C° 0 mm 2 mps 756 mmHg 29%
    09:00 +36°C° 0 mm 2 mps 756 mmHg 27%
    10:00 +37°C° 0 mm 2 mps 756 mmHg 26%
    11:00 +37°C° 0 mm 1 mps 756 mmHg 24%
    12:00 +39°C° 0 mm 1 mps 755 mmHg 22%
    13:00 +39°C° 0 mm 1 mps 755 mmHg 21%
    14:00 +39°C° 0 mm 2 mps 754 mmHg 19%
    15:00 +40°C° 0 mm 2 mps 754 mmHg 18%
    16:00 +39°C° 0 mm 3 mps 754 mmHg 19%
    17:00 +39°C° 0 mm 3 mps 754 mmHg 21%
    18:00 +38°C° 0 mm 4 mps 754 mmHg 23%
    19:00 +37°C° 0 mm 4 mps 754 mmHg 24%
    20:00 +37°C° 0 mm 4 mps 754 mmHg 25%
    21:00 +36°C° 0 mm 4 mps 755 mmHg 26%
    22:00 +36°C° 0 mm 3 mps 754 mmHg 26%
    23:00 +35°C° 0 mm 3 mps 754 mmHg 26%

    26 May, Sunday

    Time Temperature Precipitation Wind Pressure Humidity
    00:00 +35°C° 0 mm 2 mps 754 mmHg 25%
    01:00 +35°C° 0 mm 2 mps 754 mmHg 25%
    02:00 +34°C° 0 mm 2 mps 753 mmHg 25%
    03:00 +34°C° 0 mm 2 mps 753 mmHg 25%
    04:00 +34°C° 0 mm 2 mps 753 mmHg 25%
    05:00 +33°C° 0 mm 1 mps 754 mmHg 24%
    06:00 +34°C° 0 mm 1 mps 754 mmHg 24%
    07:00 +34°C° 0 mm 1 mps 754 mmHg 23%
    08:00 +35°C° 0 mm 1 mps 754 mmHg 22%
    09:00 +36°C° 0 mm 1 mps 755 mmHg 20%
    10:00 +37°C° 0 mm 1 mps 754 mmHg 19%
    11:00 +39°C° 0 mm 1 mps 754 mmHg 18%
    12:00 +39°C° 0 mm 1 mps 754 mmHg 18%
    13:00 +40°C° 0 mm 1 mps 754 mmHg 17%
    14:00 +40°C° 0 mm 2 mps 753 mmHg 17%
    15:00 +41°C° 0 mm 2 mps 753 mmHg 17%
    16:00 +40°C° 0 mm 3 mps 753 mmHg 18%
    17:00 +39°C° 0 mm 3 mps 753 mmHg 20%
    18:00 +38°C° 0 mm 3 mps 753 mmHg 21%
    19:00 +38°C° 0 mm 2 mps 753 mmHg 22%
    20:00 +37°C° 0 mm 2 mps 754 mmHg 22%
    21:00 +36°C° 0 mm 1 mps 754 mmHg 22%
    22:00 +36°C° 0 mm 2 mps 753 mmHg 22%
    23:00 +36°C° 0 mm 2 mps 753 mmHg 21%

    27 May, Monday

    Time Temperature Precipitation Wind Pressure Humidity
    00:00 +36°C° 0 mm 2 mps 753 mmHg 21%
    01:00 +35°C° 0 mm 2 mps 752 mmHg 22%
    02:00 +35°C° 0 mm 2 mps 752 mmHg 23%
    03:00 +34°C° 0 mm 2 mps 752 mmHg 24%
    04:00 +34°C° 0 mm 2 mps 752 mmHg 24%
    05:00 +33°C° 0 mm 1 mps 753 mmHg 23%
    06:00 +34°C° 0 mm 1 mps 753 mmHg 22%
    07:00 +35°C° 0 mm 1 mps 754 mmHg 21%
    08:00 +36°C° 0 mm 1 mps 754 mmHg 20%
    09:00 +37°C° 0 mm 1 mps 754 mmHg 19%
    10:00 +37°C° 0 mm 1 mps 754 mmHg 18%
    11:00 +39°C° 0 mm 2 mps 754 mmHg 17%
    12:00 +40°C° 0 mm 2 mps 753 mmHg 16%
    13:00 +40°C° 0 mm 3 mps 753 mmHg 17%
    14:00 +40°C° 0 mm 3 mps 753 mmHg 17%
    15:00 +41°C° 0 mm 4 mps 753 mmHg 18%
    16:00 +40°C° 0 mm 4 mps 753 mmHg 21%
    17:00 +38°C° 0 mm 4 mps 753 mmHg 24%
    18:00 +37°C° 0 mm 4 mps 753 mmHg 26%
    19:00 +37°C° 0 mm 3 mps 753 mmHg 28%
    20:00 +36°C° 0 mm 3 mps 753 mmHg 29%
    21:00 +36°C° 0 mm 3 mps 753 mmHg 31%
    22:00 +36°C° 0 mm 2 mps 753 mmHg 30%
    23:00 +35°C° 0 mm 2 mps 753 mmHg 30%
    Show more